STARLINK-32368

Last updated on Mon Oct 14 2024 00:02:03 GMT+0000 (Coordinated Universal Time)

1 61067U 24164T 24287.54046246 .00018191 00000+0 33443-3 0 9990 2 61067 53.1579 318.6382 0001203 90.1603 269.9544 15.49304032 4945

Satellite not in orbit

STARLINK-32368